Location: Bothwell
(42.3833°S, 147.0000°E)
Time: 20:17:36
(UTC+11:00)

First-Move - Pass Details

Date: 26 September 2022
Orbit: 570 x 653 km, 97.7° (Epoch: 25 November)

Event Time Altitude Azimuth Distance (km) Brightness Sun altitude
Exits shadow 02:30:43 23° 145° (SE) 1,421 ? -35.4°
Drops below altitude 10° 02:33:04 10° 170° (S) 2,103 ? -35.1°
Enters shadow 03:44:23 -35° 5° (N) 8,325 ? -24.2°
